K2ZVL Weather Reports


time (UTC)temp
C
wind
direction
speed
KPH
gust
KPH
rain 1hr
cm
rain 24hr
cm
rain mn
cm
humidity
%
barometer
mb
20260504045838 5 243 6.4 14.5 0.03 0.03 0.03 76 1005.9
20260504044907 5 315 3.2 11.3 0.03 0.03 0.03 76 1005.7
20260504043837 4 136 0.0 8.0 0.03 0.03 0.03 76 1006.0
20260504042837 4 169 0.0 3.2 0.03 0.03 0.03 77 1006.1
20260504041837 4 169 1.6 4.8 0.03 0.03 0.03 77 1006.2
20260504035907 4 252 1.6 9.7 0.00 0.00 0.00 78 1006.4
20260504034837 5 265 1.6 6.4 0.00 0.00 0.00 78 1006.5
20260504033837 5 205 1.6 14.5 0.00 0.00 0.00 78 1006.6
20260504031837 5 278 0.0 4.8 0.00 0.00 0.00 77 1006.7
20260504030837 5 278 0.0 3.2 0.00 0.00 0.00 76 1006.7
20260504025907 5 278 0.0 4.8 0.00 0.00 0.00 75 1006.8
20260504024837 5 311 3.2 6.4 0.00 0.00 0.00 73 1006.8
20260504022837 5 267 3.2 8.0 0.00 0.00 0.00 69 1007.1
20260504021837 5 251 3.2 8.0 0.00 0.00 0.00 67 1007.2
20260504020837 6 213 6.4 16.1 0.00 0.00 0.00 65 1007.2
20260504014837 6 245 12.9 16.1 0.00 0.00 0.00 59 1006.9
20260504013838 6 285 0.0 20.9 0.00 0.00 0.00 55 1007.1
20260504012838 6 263 1.6 12.9 0.00 0.00 0.00 52 1006.9
20260504011838 6 245 1.6 8.0 0.00 0.00 0.00 50 1006.9
20260504010938 6 265 1.6 8.0 0.00 0.00 0.00 47 1006.9
20260504005908 6 250 0.0 12.9 0.00 0.00 0.00 47 1006.8
20260504003837 6 258 1.6 9.7 0.00 0.00 0.00 46 1006.7
20260504002837 6 271 0.0 4.8 0.00 0.00 0.00 44 1006.6
20260504001837 6 317 1.6 9.7 0.00 0.00 0.00 44 1006.6
20260504000837 6 299 1.6 9.7 0.00 0.00 0.00 43 1006.6
20260503233937 7 307 1.6 17.7 0.00 0.00 0.00 41 1006.5
20260503232837 7 321 1.6 14.5 0.00 0.00 0.00 42 1006.4
20260503231906 7 311 6.4 19.3 0.00 0.00 0.00 39 1006.3
20260503230906 7 302 3.2 25.7 0.00 0.00 0.00 39 1006.1
20260503225907 7 311 6.4 12.9 0.00 0.00 0.00 38 1006.1
20260503223836 8 321 6.4 16.1 0.00 0.00 0.00 34 1006.1
20260503222836 8 317 4.8 25.7 0.00 0.00 0.00 33 1005.9
20260503220906 8 292 6.4 19.3 0.00 0.00 0.00 31 1005.9
20260503215836 9 294 12.9 22.5 0.00 0.00 0.00 30 1006.1
20260503213836 9 302 6.4 22.5 0.00 0.00 0.00 31 1005.7
20260503212907 9 318 9.7 19.3 0.00 0.00 0.00 31 1005.7
20260503211837 9 306 4.8 12.9 0.00 0.00 0.00 32 1005.6
20260503210907 9 248 4.8 16.1 0.00 0.00 0.00 31 1005.6
20260503205906 9 340 4.8 19.3 0.00 0.00 0.00 32 1005.5
20260503204836 9 296 4.8 16.1 0.00 0.00 0.00 33 1005.6
20260503203906 10 288 8.0 19.3 0.00 0.00 0.00 32 1005.6
20260503202906 9 276 1.6 14.5 0.00 0.00 0.00 36 1005.6
20260503201836 9 88 4.8 22.5 0.00 0.00 0.00 36 1005.6
20260503195907 8 310 3.2 17.7 0.00 0.00 0.00 40 1005.9
20260503194907 7 294 1.6 20.9 0.00 0.00 0.00 40 1006.0
20260503192906 7 341 12.9 16.1 0.00 0.00 0.00 40 1006.2
20260503191836 7 331 6.4 16.1 0.00 0.00 0.00 41 1006.4
20260503190936 7 336 4.8 19.3 0.00 0.00 0.00 42 1006.6
20260503185906 7 330 6.4 22.5 0.00 0.00 0.00 43 1006.7
20260503183906 6 302 4.8 22.5 0.00 0.00 0.00 44 1006.8
20260503182836 7 300 12.9 17.7 0.00 0.00 0.00 44 1006.9
20260503181837 6 319 3.2 12.9 0.00 0.00 0.00 43 1006.8
20260503180906 6 326 3.2 9.7 0.00 0.00 0.00 47 1006.9
20260503175936 6 329 3.2 14.5 0.00 0.00 0.00 45 1006.8
20260503174906 6 284 3.2 19.3 0.00 0.00 0.00 46 1006.9
20260503172906 6 281 0.0 16.1 0.00 0.00 0.00 46 1006.9
20260503171906 6 324 1.6 12.9 0.00 0.00 0.00 48 1007.0
20260503170836 6 304 6.4 17.7 0.00 0.00 0.00 48 1007.0
20260503150906 5 311 3.2 14.5 0.00 0.00 0.00 54 1007.8